Flag for Spain Weather past 2 weeks in Linares, Spain

Now
88 °F

Passing clouds.


Feels Like: 89 °F
Forecast: 65 / 94 °F
Wind: 3 mph from North

Location: Granada / Aeropuerto

Current Time: Jul 30, 2014 at 2:09:10 PM

Latest Report: Jul 30, 2014 at 1:30 PM


Visibility: N/A

Pressure: 29.98 "Hg

Humidity: 46%

Dew point: 64 °F

Location of LinaresLocation

Historic Weather in Linares — Graph

°F

Linares temperature yesterday

Maximum temperature yesterday: 95 °F (at 4:00 PM)
Minimum temperature yesterday: 63 °F (at 7:00 AM)
Average temperature yesterday: 82 °F

Past Weeks' High & Low Weather Summary

 TemperatureHumidityPressure
High108 °F (Jul 17, 5:00 PM)94% (Jul 20, 7:30 AM)30.15 "Hg (Jul 20, 7:30 AM)
Low55 °F (Jul 21, 6:30 AM)10% (Jul 18, 5:30 PM)29.83 "Hg (Jul 24, 4:30 PM)
Average84 °F37%30.01 "Hg
* Reported Jul 15 1:00 PM — Jul 30 1:00 PM, Linares, Weather by CustomWeather, © 2014

Note: Actual official high and low records may vary slightly from our data, if they occured in-between our weather recording intervals... More about our weather records

Advertising

Linares weather history for previous 24 hours

 ConditionsComfort  
Time TempWeatherWind HumidityBarometerVisibility
1:00 PM
Jul 30
86 °FPassing clouds.1 mph49%29.98 "HgN/A
12:30 PM84 °FPassing clouds.2 mph55%30.01 "HgN/A
12:00 PM82 °FPassing clouds.2 mph58%30.01 "HgN/A
11:30 AM82 °FPassing clouds.2 mph58%30.01 "HgN/A
11:00 AM79 °FPassing clouds.1 mph65%30.01 "HgN/A
10:30 AM79 °FPassing clouds.1 mph61%30.01 "HgN/A
10:00 AM77 °FPassing clouds.1 mph65%30.01 "HgN/A
9:30 AM73 °FPassing clouds.No wind69%30.01 "HgN/A
9:00 AM70 °FPassing clouds.No wind73%30.01 "Hg6 mi
8:30 AM68 °FPassing clouds.No wind73%30.01 "Hg6 mi
8:00 AM64 °FPassing clouds.No wind83%30.01 "Hg6 mi
7:30 AM64 °FClear.No wind83%29.98 "Hg10 mi
7:00 AM64 °FClear.No wind83%29.98 "Hg10 mi
6:30 AM66 °FClear.1 mph73%29.98 "Hg10 mi
6:00 AM66 °FClear.1 mph73%29.98 "Hg10 mi
11:00 PM
Jul 29
79 °FClear.6 mph48%29.98 "Hg10 mi
10:30 PM79 °FClear.3 mph45%29.95 "Hg10 mi
10:00 PM81 °FPassing clouds.5 mph42%29.95 "HgN/A
9:30 PM82 °FPassing clouds.8 mph37%29.95 "HgN/A
9:00 PM86 °FSunny.12 mph31%29.92 "Hg10 mi
8:30 PM88 °FSunny.13 mph29%29.92 "Hg10 mi
8:00 PM88 °FPassing clouds.15 mph27%29.92 "HgN/A
7:30 PM90 °FPassing clouds.15 mph26%29.92 "HgN/A
7:00 PM91 °FPassing clouds.14 mph24%29.92 "HgN/A
6:30 PM93 °FPassing clouds.14 mph24%29.92 "HgN/A
6:00 PM93 °FPassing clouds.15 mph26%29.89 "HgN/A
5:30 PM95 °FPassing clouds.14 mph25%29.89 "HgN/A
5:00 PM95 °FPassing clouds.13 mph25%29.89 "HgN/A
4:30 PM95 °FPassing clouds.10 mph25%29.92 "HgN/A
4:00 PM95 °FSunny.7 mph23%29.92 "Hg10 mi
3:30 PM93 °FPassing clouds.7 mph23%29.92 "HgN/A
3:00 PM93 °FPassing clouds.7 mph24%29.92 "HgN/A
2:30 PM93 °FPassing clouds.7 mph24%29.95 "HgN/A
2:00 PM91 °FPassing clouds.7 mph26%29.95 "HgN/A
Weather by CustomWeather, © 2014

See weather overviewHow to use our weather pages